This is the latest recevied weather packets stored in our database for station/object N3WPH. If no packets are shown the sender has not sent any weather packets the latest 10 day(s).
| Time | Temp. | Humidity | Pressure | Rain* | Wind** | Luminosity | Snow |
|---|---|---|---|---|---|---|---|
| 1778020939 | 24.44° C | 40% | 1007 hPa | 0 mm | - | 5 W/m² | - |
| 1778020636 | 24.44° C | 40% | 1007.1 hPa | 0 mm | - | 5 W/m² | - |
| 1778020332 | 24.44° C | 40% | 1006.9 hPa | 0 mm | - | 6 W/m² | - |
| 1778020028 | 24.44° C | 40% | 1007 hPa | 0 mm | - | 11 W/m² | - |
| 1778019724 | 23.89° C | 40% | 1007 hPa | 0 mm | - | 40 W/m² | - |
| 1778019422 | 23.89° C | 41% | 1006.8 hPa | 0 mm | - | 37 W/m² | - |
| 1778019118 | 23.89° C | 41% | 1006.8 hPa | 0 mm | - | 21 W/m² | - |
| 1778018815 | 23.89° C | 41% | 1006.9 hPa | 0 mm | - | 34 W/m² | - |
| 1778018513 | 23.89° C | 42% | 1006.8 hPa | 0 mm | - | 32 W/m² | - |
| 1778018210 | 23.89° C | 42% | 1007 hPa | 0 mm | - | 45 W/m² | - |
| 1778017908 | 23.89° C | 43% | 1007 hPa | 0 mm | - | 48 W/m² | - |
| 1778017606 | 23.89° C | 42% | 1007 hPa | 0 mm | - | 52 W/m² | - |
| 1778017303 | 24.44° C | 42% | 1007 hPa | 0 mm | - | 32 W/m² | - |
| 1778017000 | 24.44° C | 41% | 1007 hPa | 0 mm | - | 47 W/m² | - |
| 1778016697 | 24.44° C | 41% | 1007 hPa | 0 mm | - | 23 W/m² | - |
| 1778016393 | 24.44° C | 39% | 1006.9 hPa | 0 mm | - | 16 W/m² | - |
| 1778016091 | 25° C | 39% | 1006.9 hPa | 0 mm | - | 12 W/m² | - |
| 1778015787 | 25° C | 37% | 1006.7 hPa | 0 mm | - | 22 W/m² | - |
| 1778015485 | 25° C | 37% | 1006.7 hPa | 0 mm | - | 32 W/m² | - |
| 1778015181 | 25° C | 37% | 1006.6 hPa | 0 mm | - | 78 W/m² | - |
| 1778014878 | 25.56° C | 37% | 1006.4 hPa | 0 mm | - | 84 W/m² | - |
| 1778014575 | 25.56° C | 37% | 1006.7 hPa | 0 mm | - | 149 W/m² | - |
| 1778014273 | 25° C | 39% | 1006.6 hPa | 0 mm | - | 212 W/m² | - |
| 1778013970 | 24.44° C | 40% | 1006.7 hPa | 0 mm | - | 76 W/m² | - |
| 1778013668 | 25° C | 40% | 1006.7 hPa | 0 mm | - | 40 W/m² | - |
* Rain latest hour (hover to see other rain measurements)
** Current wind speed in m/s (hover to see current wind gust speed)